Satellite-Ground Cal/Val Site Overpasses Predictions

Prediction of Satellite NPP Overpassing Cal/Val Site: Antarctic Dome C

Ground Cal/Val Site Location: Latitude: -75.10, Longitude: 123.35; Satellite-Ground Site NADIR distance within 100 km.

Table of predicted overpasses for the next 14.0 days since TLE Epoch: 4/23/2022
Interval Starting Time Ending Time Minimum Distance Time Minimum Distance (km)
1 04/23/2022 14:42:27 04/23/2022 14:42:52 04/23/2022 14:42:39 51.70
2 04/24/2022 07:44:07 04/24/2022 07:44:27 04/24/2022 07:44:17 70.08
3 04/25/2022 07:25:14 04/25/2022 07:25:41 04/25/2022 07:25:28 38.01
4 04/27/2022 15:07:39 04/27/2022 15:07:47 04/27/2022 15:07:43 94.88
5 04/28/2022 14:48:38 04/28/2022 14:49:06 04/28/2022 14:48:52 16.31
6 04/30/2022 07:31:27 04/30/2022 07:31:56 04/30/2022 07:31:41 2.87
7 05/03/2022 14:54:51 05/03/2022 14:55:20 05/03/2022 14:55:05 19.96
8 05/04/2022 14:36:09 05/04/2022 14:36:23 05/04/2022 14:36:16 87.19
9 05/05/2022 07:37:40 05/05/2022 07:38:07 05/05/2022 07:37:54 34.27
